595  
ASUS42 KMHX 021924  
RWRMHX  
WEATHER ROUNDUP FOR EASTERN NORTH CAROLINA  
NATIONAL WEATHER SERVICE NEWPORT/MOREHEAD CITY NC  
200 PM EST FRI DEC 02 2016  
 
NOTE: "FAIR" INDICATES FEW OR NO CLOUDS BELOW 12,000 FEET  
WITH NO SIGNIFICANT WEATHER AND/OR S TO VISIBILITY
 
 
NCZ015>017-031-032-045>047-102-103-022000-  
NORTH COAST  
 
CITY SKY/WX TMP DP RH WIND PRES REMARKS
 
EDENTON SUNNY 56 33 40 W3 30.06F  
ELIZABETH CITY SUNNY 54 31 41 W9 30.05F  
KITTY HAWK CLEAR 52 38 58 CALM 30.04F  
MANTEO SUNNY 52 34 49 NW8 30.06S  
 

 
 
NCZ045>047-081-094-103-104-022000-  
CENTRAL COAST  
 
CITY SKY/WX TMP DP RH WIND PRES REMARKS
 
FRISCO SUNNY 56 39 53 VRB3 30.05F  
 

 
 
NCZ095-097-098-100-101-022000-  
SOUTHERN COAST  
 
CITY SKY/WX TMP DP RH WIND PRES REMARKS
 
BEAUFORT SUNNY 58 37 45 VRB7 30.07F  
CEDAR ISLAND NOT AVBL  
JACKSONVILLE MOSUNNY 58 31 35 NW10 30.08F  
PINEY ISLAND CLEAR N/A N/A N/A N5 30.06F  
WILMINGTON SUNNY 59 32 36 NW7 30.09F  
 

 
 
NCZ011>013-027>030-043-044-078>080-089-090>093-098-022000-  
COASTAL PLAIN  
 
CITY SKY/WX TMP DP RH WIND PRES REMARKS
 
AHOSKIE SUNNY 54 31 42 CALM 30.06F  
CLINTON SUNNY 57 33 40 NW9 30.10F  
ELIZABETHTOWN SUNNY 57 32 37 NW10 30.10F  
GOLDSBORO SUNNY 58 29 34 W12 30.06F  
GREENVILLE SUNNY 55 32 41 NW5 30.09S  
HAVELOCK SUNNY 59 35 40 N8 30.08F  
KENANSVILLE SUNNY 57 32 38 W8 30.09F  
KINSTON SUNNY 57 30 35 NW6 30.09F  
NEW BERN SUNNY 56 32 40 N10 30.08F  
RICHLANDS SUNNY 58 33 39 VRB6 30.09F  
ROCKY MOUNT SUNNY 57 31 37 W8 30.07F  
WASHINGTON SUNNY 57 32 38 NW7 30.07F  
WHITEVILLE SUNNY 58 32 37 W7 30.11S  
 

 
 
AMZ130-135-150-152-154-156-158-170-250-252-270-ANZ085-086-088-633-658-670-022000-  
MARINE OBSERVATIONS  
 
STATION/POSITION TIME TEMP WIND PRES WAVE SWELL
 
AIR SEA DIR/SP/G HT/PER HT/PER  
(UTC) (F) (DEG/KT/KT) (MB) (FT/S) (FT/S)  
CHESAPEAKE LIGHT NOT AVBL  
64 E VA BEACH 1850 51 60 310/ 14/ 17 1016.7 4/ 6 2/ 6  
DUCK 1900 52 57 270/ 8/ 11 1017.1  
2 E DUCK NOT AVBL  
OREGON INLET 1900 52 58 300/ 8/ 11 1017.5  
13E OREGON INLT 1900 61 N/A 4/ 6 3/ 6  
HATTERAS CG 1900 53 62 310/ 8/ 10 1017.4  
DIAMOND BUOY 1850 55 77 340/ 10/ 16 1017.6 4/ 7 3/ 7  
CAPE LOOKOUT 1900 55 330/ 6/ 7 1017.9  
BEAUFORT LAB 1900 56 58 340/ 5/ 8 1017.0  
30 SE NEW RVR IN 1908 56 72 330/ 8/ 14 1018.7  
30 SE NEW RVR IN NOT AVBL  
27 SE WRIGHTSVLE 1908 56 66 320/ 10/ 16 1018.7  
5 SE WRIGHTSVLE NOT AVBL  
225 S CAPE HAT 1850 70 74 310/ 14/ 17 1016.3 5/ 7 3/ 7  
41 SE CHARLESTON 1850 58 74 10/ 14/ 17 1019.6 4/ 5 2/ 9  
 

 
 
 
CLICK HERE TO GO TO PREVIOUS BULLETINS.

The Nexlab NC Page Main Text Page